DECAYED

COSMOS 2499 DEB, 60615 (Decayed)

Orbit data source: Space-Track

COSMOS 2499 DEB, 60615 was space debris in LEO originally from a launch on Fri, 23 May 2014 UTC launched from the Plesetsk Missile And Space Complex (PKMTR). Debris objects in space refer to the collection of defunct objects orbiting the Earth. Examples of debris include non-operational satellites, rocket bodies, and fragments generated from explosions, collisions, or faulty payload assembly.

Not visible in the next 10 days
Identifier
60615, 2014-028CB
Orbit
Decayed
Country
Flag of CISCIS
Related business
Manufacturer
TsNIIKhM
Mission
Decayed spacecraft
Bus & Motor
Unknown
Mass
Unknown
Launch date (UTC)
2014-05-23 (12 years ago)
Launch vehicle
Unknown
Launch site
Plesetsk Missile And Space Complex (PKMTR)
Object type
Payload
Rocket body
Debris
Shape & HBR
Unknown shape, 0.1 m
Radar Cross Section
Small (<0.1 m²)

Expand to show TLE details & history
Last TLE update: 11 months ago

TLE from 11 months ago
0 COSMOS 2499 DEB
1 60615U 14028CB  25032.57483980  .00929174  00000-0  23240+0 0  9991
2 60615  82.1028 146.7712 0208571 225.3773 133.0243 14.36461402100504
Epoch: 2025-02-01T13:47Z
TLE epoch observation values (Epoch: 2025-02-01T13:47:46.158Z)
Latitude
-0.00008°
Longitude
167.80764°
Altitude
876.552 km
Speed
7.36 km/s
True Right ascension
09h 47m 05s
True Declination
0° 00' 00"
Sunlit
Object was in full shadow at epoch
Visualization orbit readout
Latitude
Unknown
Longitude
Unknown
Altitude
Unknown
Speed
Unknown
Apparent Right ascension
Unknown
Apparent Declination
Unknown
Sunlit
N/A
Visualization observer readout
Local Sidereal Time
09:57:04
Azimuth
Unknown
Elevation
Unknown
Doppler factor
Unknown
Orbital elements
Apogee altitude
916.345 km
Perigee altitude
618.278 km
Semi-major axis
7,145.448 km
Eccentricity
0.02086
Inclination
82.1028°
RAAN
146.7712°
Arg. of periapsis
225.3773°
True anomaly
134.74076°
Mean anomaly
133.0243°
Eccentric anomaly
133.88558°
Mean motion
3.59335 °/min
Orbital period
100.19 mins
BSTAR
0.2324
Loading maneuver chart data...
Computing Atmospheric mass density...
Loading historical data...
Loading historical data...
Loading historical data...
Loading historical data...
Loading historical data...
Loading historical data...
Loading historical data...

Documentation

Showing up to 5 results
|